275P/Hermann (2012)

Japanese version
Home page
Updated on April 28, 2013

---------------------------------------------------------------------

* Profile

Designation 275P/2012 Y2
Re-discovery Date December 22, 2012
Magnitude 20.2 mag
Re-discoverer Pan-STARRS 1 telescope (Haleakala)

* Orbital Elements

Epoch 2012 Dec. 19.0 TT = JDT 2456280.5
T 2012 Dec. 27.28058 TT                                 MPC
q   1.6437649            (2000.0)            P               Q
n   0.07148053     Peri.  173.98412     -0.95636822     -0.28341390
a   5.7501286      Node   348.75560     +0.25058860     -0.67081936
e   0.7141342      Incl.   21.34274     +0.15021710     -0.68533054
P  13.8
From 121 observations 1999 Feb. 20-2012 Dec. 25, mean residual 0".8.

* Magnitudes Graph

        m1 = 15.0 + 5 log d + 15.0 log r

---------------------------------------------------------------------

The orbital elements are published on M.P.E.C. 2012-Y29.
The magnitudes graphs are made with Comet for Windows.

---------------------------------------------------------------------

Copyright(C) Seiichi Yoshida (comet@aerith.net). All rights reserved.